Terug naar catalogus

COSMOS 647

ActiefMilitairLEO
NORAD 7271·PAYLOAD·🇷🇺 Russia

Gelanceerd Apr 23, 1974 vanaf Plesetsk Cosmodrome

Loading…

Volgende Passages (komende 24 uur)

TLE

VersSource: Space-Track

Epoch: Sep 14, 2026, 09:45 UTC

1 07271U 74024G   26257.40680421 -.00000032  00000-0 -10029-3 0  9993
2 07271  74.0169  53.9260 0038963  37.4535 351.8903 12.52877519396236

Volg COSMOS 647 in realtime met AllMySat

Download on the App Store